SCP
0 0 0 0 0 0 0 0 0 0 0 0 0 0 0 0 0 0 0 0 0 0 0 0 0 0 0 0 0 0 0 0 0 0 0 0 0 0 0 0 0 0 0
0 0 0 0 0 0 0 0 0 0 0 0 0 0 0 0 0 0 0 0 0 0 0 0 0 0 0 0 0 0 0 0 0 0 0 0 0 0 0 0 0 0 0
1 0 0 0 0 0 0 0 0 0 0 0 0 0 0 0 0 0 0 0 0 0 0 0 0 0 0 0 0 0 0 0 1 1 0 0 0 0 0 0 0 0 0
1 1 0 0 0 0 0 0 0 0 0 0 0 0 0 0 0 0 0 0 0 0 0 0 0 0 0 0 0 0 0 0 1 1 1 1 1 0 0 0 0 0 0
1 1 1 0 0 0 0 0 0 0 0 0 0 0 0 0 0 0 0 0 0 0 0 0 0 0 0 0 0 0 0 0 0 1 1 1 1 1 1 1 0 0 0
1 1 1 0 0 0 0 0 0 0 0 0 0 0 0 0 0 0 0 0 0 0 0 0 0 0 0 0 0 0 0 0 0 0 1 1 1 1 1 1 1 1 1
2 2 1 1 0 0 0 0 0 0 0 0 0 0 0 0 0 0 0 0 0 0 0 0 0 0 0 0 0 0 0 0 0 0 0 1 1 1 1 1 1 1 1
2 2 1 1 1 0 0 0 0 0 0 0 0 0 0 0 0 0 0 0 0 0 0 0 0 0 0 0 0 0 0 0 0 0 0 0 1 1 1 1 1 1 1
1 1 1 1 1 0 0 0 0 0 0 0 0 0 0 0 0 0 0 0 0 0 0 0 0 0 0 0 0 0 0 0 0 0 0 0 0 1 1 1 1 1 1
2 2 1 1 1 1 0 0 0 0 0 0 0 0 0 0 0 0 0 0 0 0 0 0 0 0 0 0 0 0 0 0 0 0 0 0 0 0 0 0 1 1 1
1 1 1 1 1 1 0 0 0 0 0 0 0 0 0 0 0 0 0 0 0 0 0 0 0 0 0 0 0 0 0 0 0 0 0 0 0 0 0 0 0 0 0
1 1 1 1 1 1 1 0 0 0 0 0 0 0 0 0 0 0 0 0 0 0 0 0 0 0 0 0 0 0 0 0 0 0 0 0 0 0 0 0 0 0 0
1 1 1 1 0 0 0 0 0 0 0 0 0 0 0 0 0 0 0 0 0 0 0 0 0 0 0 0 0 0 0 0 0 0 0 0 0 0 0 0 0 0 0
0 0 0 0 0 0 0 1 1 0 0 0 0 0 0 0 0 0 0 0 0 0 0 0 0 0 0 0 0 0 0 0 0 0 0 0 0 0 0 0 0 0 0
0 0 0 0 0 0 0 0 1 1 0 0 0 0 0 0 0 0 0 0 0 0 0 0 0 0 0 0 0 0 0 0 0 0 0 0 0 0 0 1 1 1 0
0 0 0 0 0 0 0 0 0 0 0 0 0 0 0 0 0 0 0 0 0 0 0 0 0 0 0 0 0 0 0 0 0 0 0 0 0 0 0 0 1 1 1
0 0 0 0 0 0 0 0 0 0 0 0 0 0 0 0 0 0 0 0 0 0 0 0 0 0 0 0 0 0 0 0 0 0 0 0 0 0 0 0 0 0 1
0 0 0 0 0 0 0 0 0 0 0 0 0 0 0 0 0 0 0 0 0 0 0 0 0 0 0 0 0 0 0 0 0 0 0 0 0 0 0 0 0 0 0
0 0 0 0 0 0 0 0 0 0 0 0 0 0 0 0 0 0 0 0 0 0 0 0 0 0 0 0 0 0 0 0 0 0 0 0 0 0 0 0 0 0 0
0 0 0 0 0 0 0 0 0 0 0 0 0 0 0 0 0 0 0 0 0 0 0 0 0 0 0 0 0 0 0 0 0 0 0 0 0 0 0 0 0 0 0
0 0 0 0 0 0 0 0 0 0 0 0 0 0 0 0 0 0 0 0 0 0 0 0 0 0 0 0 0 0 0 0 0 0 0 0 0 0 0 0 0 0 0
0 0 0 0 0 0 0 0 0 0 0 0 0 0 0 0 0 0 0 0 0 0 0 0 0 0 0 0 0 0 0 0 0 0 0 0 0 0 0 0 0 0 0
0 0 0 0 0 0 0 0 0 0 0 0 0 0 0 0 0 0 0 0 0 0 0 0 0 0 0 0 0 0 0 0 0 0 0 0 0 0 0 0 0 0 0
0 0 0 0 0 0 0 0 0 0 0 0 0 0 0 0 0 0 0 0 0 0 0 0 0 0 0 0 0 0 0 0 0 0 0 0 0 0 0 0 0 0 0
0 0 0 0 0 0 0 0 0 0 0 0 0 0 0 0 0 0 0 0 0 0 0 0 0 0 0 0 0 0 0 0 0 0 0 0 0 0 0 0 0 0 0
0 0 0 0 0 0 0 0 0 0 0 0 0 0 0 0 0 0 0 0 0 0 0 0 0 0 0 0 0 0 0 0 0 0 0 0 0 0 0 0 0 0 0
Wind_Speed
4 4 3 3 3 2 2 2 2 2 2 2 2 3 3 3 2 2 2 4 3 3 4 4 4 4 4 3 2 2 4 4 5 5 5 6 6 7 7 6 5 5 4
5 4 4 4 3 3 3 3 3 2 2 2 3 4 4 4 3 3 2 3 4 3 3 4 5 5 5 5 4 3 3 4 4 5 6 6 7 7 7 6 6 5 5
6 5 4 4 4 4 4 3 3 2 2 2 3 4 4 4 4 3 2 1 2 3 3 3 4 4 5 5 5 4 3 4 4 5 6 7 7 7 7 7 6 6 6
8 6 5 5 4 3 3 3 2 2 2 2 2 2 2 3 4 3 2 2 2 2 2 3 2 3 4 4 5 5 4 4 4 4 5 6 6 7 7 7 7 7 7
9 7 6 5 4 3 3 3 3 3 3 3 3 2 2 2 3 3 4 4 3 3 2 2 2 2 3 4 4 5 5 5 5 4 5 5 5 6 6 6 6 6 5
9 8 6 5 4 3 3 3 3 3 2 3 2 1 1 1 2 3 4 3 3 4 3 2 1 1 3 3 3 4 4 5 5 5 5 4 4 4 3 3 3 3 3
8 7 6 5 4 4 4 4 3 3 2 2 2 1 1 1 2 3 3 3 4 4 3 3 2 1 1 2 3 4 4 5 5 5 5 4 3 2 1 1 1 2 2
8 7 7 5 5 4 3 4 3 2 2 2 3 2 1 2 2 1 2 3 4 3 4 4 3 3 2 1 2 4 3 4 5 5 4 4 3 2 1 1 2 2 1
9 8 8 7 6 6 5 5 4 5 3 2 2 4 4 4 2 2 2 2 2 3 3 3 4 4 3 3 2 4 4 4 5 6 5 4 4 3 2 1 2 1 1
6 7 7 8 7 6 6 5 5 4 4 3 2 1 2 3 3 1 2 1 1 3 3 3 4 4 4 4 4 5 6 6 6 7 6 5 4 4 3 2 2 2 2
4 5 6 7 7 6 7 7 7 6 5 4 4 2 2 1 2 2 2 2 1 1 2 3 3 3 4 5 4 6 8 8 8 8 7 6 5 5 4 3 3 3 3
1 3 4 4 5 5 7 7 7 8 7 6 4 4 4 3 3 3 3 2 2 2 2 2 3 4 4 5 7 9 9 9 9 8 7 6 6 5 5 4 4 4 4
1 1 1 2 3 4 5 6 7 7 7 8 7 5 4 3 2 3 3 2 2 1 2 2 2 3 3 3 5 9 9 10 10 10 8 7 5 5 5 5 5 5 6
3 3 2 1 1 3 4 5 5 7 7 8 8 6 4 3 3 3 3 3 2 1 1 3 2 2 2 2 4 7 6 10 11 11 10 8 7 6 5 6 6 6 6
4 5 4 3 3 2 0 3 3 5 6 6 6 6 4 3 4 3 3 3 4 2 2 2 2 2 1 2 4 4 5 8 11 11 11 9 8 7 6 5 5 5 4
5 4 4 4 3 3 3 2 1 1 3 4 4 5 4 3 3 3 3 2 3 4 2 2 2 2 2 2 3 3 4 8 8 9 10 10 9 8 7 7 6 6 5
4 4 4 4 3 3 2 2 2 2 2 3 3 3 2 3 2 2 2 2 3 3 3 2 1 1 2 2 2 1 1 3 3 6 7 8 9 9 8 8 7 7 7
6 5 4 4 3 2 2 2 2 2 3 3 3 2 1 1 1 2 2 3 3 3 3 2 1 1 2 1 1 1 0 1 2 3 6 7 8 8 9 9 8 8 8
8 7 7 6 5 4 2 1 1 1 1 1 1 1 0 1 1 2 2 2 2 2 2 2 1 1 1 1 1 1 1 1 0 1 3 4 5 6 7 7 8 8 8
8 8 7 6 6 5 4 2 0 1 1 1 2 2 2 3 4 4 3 3 3 3 2 2 1 1 1 1 1 1 1 1 2 2 3 3 4 4 4 3 3 4 5
9 8 8 8 8 6 6 5 3 1 0 1 1 1 2 4 6 5 3 3 4 3 2 2 1 1 1 1 1 0 1 1 2 2 2 3 4 4 5 7 7 7 5
8 9 9 9 9 9 13 13 7 4 3 2 2 1 1 2 5 6 7 7 6 4 3 3 1 1 0 0 0 1 1 2 2 2 2 3 3 5 4 4 8 10 10
7 8 9 9 9 11 16 15 14 6 5 5 3 2 2 2 3 3 5 6 4 4 5 4 3 2 1 0 1 2 2 3 3 2 2 3 3 4 4 6 11 12 13
5 6 7 8 8 11 16 15 13 7 6 6 5 4 2 3 2 3 4 4 3 3 3 3 3 2 2 1 2 2 3 4 4 4 3 3 2 3 3 4 12 13 13
5 5 5 7 7 9 15 14 11 5 5 6 5 5 4 3 3 5 4 4 4 3 4 6 6 6 6 5 4 3 3 3 3 4 3 3 2 2 3 5 8 13 14
4 4 6 6 6 7 13 14 11 3 4 4 4 5 7 6 5 5 4 4 4 3 4 5 6 7 7 8 9 4 3 3 3 3 3 2 2 1 3 3 6 7 8
Wind_Direction
201 206 215 215 217 211 216 228 242 259 263 255 249 237 242 242 234 227 266 284 283 277 269 249 228 215 209 207 212 206 185 168 165 171 174 170 165 160 155 154 156 159 159
201 203 217 221 218 209 210 216 232 251 265 256 253 237 229 223 222 221 236 296 294 278 275 267 252 231 217 214 222 232 208 184 179 185 186 186 182 178 177 180 185 190 192
202 203 213 224 222 204 202 208 227 233 258 250 243 231 215 208 203 211 225 260 294 286 269 268 276 264 237 222 218 230 219 192 189 196 197 196 194 195 197 202 209 215 216
203 202 211 226 220 193 188 198 208 224 242 234 222 215 202 195 203 207 217 238 252 266 279 275 276 282 260 237 228 226 215 195 195 200 202 198 199 205 213 223 230 233 231
205 203 212 223 213 195 193 210 197 194 212 214 205 196 199 205 209 213 222 233 240 243 247 276 274 269 265 246 241 228 211 202 202 205 204 201 203 211 221 233 243 243 237
203 201 208 213 203 201 202 197 204 197 203 194 182 151 212 234 214 218 224 226 236 240 233 242 263 279 264 251 244 228 215 204 202 205 205 200 197 206 221 232 239 247 248
199 199 206 202 192 203 212 195 182 195 197 139 110 68 329 283 232 231 223 221 232 232 225 226 221 228 271 262 245 230 221 210 204 203 200 189 181 185 209 245 256 268 266
193 198 199 196 186 192 199 183 171 170 181 162 145 134 239 313 281 234 227 225 231 222 225 225 215 219 228 236 243 241 229 214 209 203 197 189 179 179 207 266 275 275 275
189 186 189 181 178 176 181 179 180 179 183 195 174 153 161 212 265 298 266 244 231 219 228 225 223 220 219 221 235 243 234 222 218 210 204 194 186 190 214 251 263 249 219
194 185 181 174 170 167 171 179 183 184 177 191 201 180 160 156 162 272 309 300 262 227 231 232 231 224 215 216 223 227 231 226 227 223 215 207 209 215 216 215 237 215 169
186 181 179 176 174 174 177 180 184 188 188 189 183 167 153 138 159 170 232 288 313 272 240 232 235 233 220 216 218 225 227 226 227 230 225 219 222 229 224 212 207 191 180
148 166 175 183 183 181 185 190 191 193 192 190 188 180 172 170 184 181 193 215 244 289 289 254 237 236 227 217 225 224 222 223 224 229 228 227 232 242 240 222 207 196 181
48 74 154 177 186 192 195 193 194 197 195 193 191 187 183 179 165 171 173 189 208 276 306 286 252 245 238 221 228 225 224 221 220 224 224 226 233 245 252 247 230 215 208
29 36 59 94 167 199 203 200 199 200 194 193 187 175 171 180 177 177 170 156 162 258 291 276 293 259 255 239 237 227 228 226 219 220 220 223 229 236 246 251 250 245 242
32 39 45 54 53 54 148 202 200 195 185 184 177 172 172 178 180 185 172 162 157 184 256 275 291 304 280 246 243 218 221 232 226 219 218 218 223 232 239 247 253 250 249
27 36 40 46 48 45 42 49 80 149 158 163 162 163 159 155 167 172 175 166 157 163 211 256 264 283 302 298 248 217 224 235 238 227 220 219 221 228 236 243 249 248 246
23 29 38 44 47 48 46 56 58 62 100 116 118 121 123 142 158 162 160 158 160 154 190 250 268 292 302 315 341 319 228 218 230 233 222 220 223 229 236 242 248 250 250
30 31 34 39 35 35 52 79 80 74 81 89 90 92 77 103 136 153 158 165 166 169 171 215 280 305 303 321 327 340 359 201 207 232 226 227 231 235 238 241 245 249 251
32 32 35 33 24 17 22 34 124 123 117 122 126 121 109 152 193 168 152 152 151 155 155 174 244 303 319 339 6 20 36 27 243 225 224 232 238 243 248 250 252 254 257
35 31 29 24 17 17 19 12 349 174 184 205 204 190 190 196 195 174 157 153 139 132 134 144 193 302 312 325 35 50 39 36 32 45 62 64 59 53 29 2 314 287 276
35 28 30 25 19 21 23 25 26 51 131 179 189 184 182 190 187 170 154 149 138 127 123 122 119 56 7 11 26 35 97 78 56 46 68 56 58 60 50 40 38 31 17
26 30 29 25 27 26 29 37 40 38 37 45 58 85 148 169 177 165 155 152 150 144 144 136 131 123 65 351 4 59 106 106 87 41 75 64 55 61 50 43 45 52 51
27 30 26 24 22 20 28 32 38 40 37 33 30 37 70 63 84 110 127 130 136 140 143 143 138 148 145 164 120 80 74 79 78 37 80 75 50 58 43 42 49 53 52
30 28 27 22 21 20 25 28 30 30 34 31 27 31 60 63 61 91 100 102 96 96 113 110 120 128 133 129 121 116 110 95 78 39 48 85 46 53 42 37 40 49 49
36 31 25 23 20 9 17 24 29 13 21 21 18 26 46 59 75 115 120 123 107 88 96 104 101 92 89 94 110 107 100 94 76 39 26 90 67 61 48 35 32 41 47
36 28 26 18 14 4 8 17 24 15 13 7 9 16 28 40 58 106 127 133 127 117 113 95 76 65 62 61 63 76 115 114 110 75 18 78 74 82 86 42 34 33 40